Terminal Aerodrome Forecast
Issued by NWS

Home | Current Version | Previous Version | Graphics & Text | Print | Product List | Glossary On
Versions: 1 2 3 4 5 6 7 8 9 10 11 12 13 14 15
000
FTUS43 KMPX 252227 AAA
TAFAXN
TAF AMD
KAXN 252227Z 2522/2618 36008KT P6SM SCT015 BKN020
      TEMPO 2600/2604 FEW015 SCT025 BKN035
     FM260900 01003KT 4SM BR FEW006 OVC010
     FM261200 01004KT P6SM SCT010 BKN020
     FM261330 01006KT P6SM SCT020 BKN035
     FM261500 34006KT P6SM BKN050=

USA.gov is the U.S. government's official web portal to all federal, state and local government web resources and services.